KE9LZ-9 Weather Reports


time (UTC)temp
C
wind
direction
speed
KPH
gust
KPH
rain 1hr
cm
rain 24hr
cm
rain mn
cm
humidity
%
barometer
mb
20260904062003 17 11 1.6 3.2 0.03 0.05 0.03 99 1013.5
20260904061004 17 19 0.0 4.8 0.03 0.05 0.03 99 1013.7
20260904055004 17 5 1.6 3.2 0.03 0.05 0.03 99 1014.8
20260904054004 17 53 1.6 3.2 0.00 0.05 0.00 99 1014.5
20260904053004 17 32 3.2 3.2 0.00 0.05 0.00 99 1014.7
20260904052003 17 28 1.6 3.2 0.00 0.05 0.00 99 1014.9
20260904051004 17 0 3.2 3.2 0.00 0.05 0.00 99 1014.7
20260904050004 17 13 1.6 3.2 0.00 0.05 0.00 99 1015.1
20260904045004 17 314 3.2 3.2 0.00 0.05 0.05 99 1015.0
20260904044004 17 23 1.6 3.2 0.00 0.05 0.05 99 1015.1
20260904043004 17 334 1.6 3.2 0.00 0.05 0.05 99 1015.3
20260904042004 17 339 1.6 1.6 0.00 0.05 0.05 99 1015.4
20260904041004 17 347 0.0 3.2 0.00 0.05 0.05 99 1015.4
20260904040004 17 315 0.0 3.2 0.00 0.05 0.05 99 1015.4
20260904035004 17 22 1.6 3.2 0.00 0.05 0.05 99 1015.2
20260904034003 17 17 1.6 3.2 0.00 0.05 0.05 99 1015.4
20260904033004 17 45 1.6 3.2 0.00 0.05 0.05 99 1014.9
20260904032004 17 46 1.6 3.2 0.00 0.05 0.05 99 1015.3
20260904031004 17 11 1.6 3.2 0.00 0.05 0.05 99 1015.2
20260904025004 17 341 1.6 3.2 0.00 0.05 0.05 99 1015.6
20260904024005 17 34 0.0 3.2 0.00 0.05 0.05 99 1015.4
20260904023003 17 303 1.6 3.2 0.00 0.05 0.05 99 1015.7
20260904022004 17 21 0.0 1.6 0.00 0.05 0.05 99 1015.5
20260904021003 18 24 1.6 1.6 0.00 0.05 0.05 99 1015.1
20260904020004 18 0 0.0 1.6 0.00 0.05 0.05 99 1015.4
20260904015004 18 355 1.6 1.6 0.00 0.05 0.05 99 1015.5
20260904014004 18 359 0.0 1.6 0.00 0.05 0.05 99 1015.6
20260904013004 18 11 1.6 1.6 0.00 0.05 0.05 99 1015.4
20260904011004 18 312 0.0 1.6 0.00 0.05 0.05 98 1015.3
20260904005003 19 355 0.0 1.6 0.00 0.05 0.05 97 1014.9
20260904004004 19 29 0.0 1.6 0.00 0.05 0.05 97 1014.8
20260904002004 20 11 0.0 3.2 0.00 0.05 0.05 95 1015.0
20260903235003 20 73 1.6 3.2 0.00 0.05 0.05 93 1014.6
20260903234004 20 267 1.6 4.8 0.00 0.05 0.05 93 1014.6
20260903233003 21 48 1.6 3.2 0.00 0.05 0.05 91 1014.6
20260903232004 21 344 0.0 3.2 0.00 0.05 0.05 91 1014.7
20260903231004 21 315 0.0 3.2 0.00 0.05 0.05 89 1014.7
20260903230003 21 12 0.0 3.2 0.00 0.05 0.05 89 1014.6
20260903224004 21 10 1.6 3.2 0.00 0.05 0.05 87 1014.1
20260903223003 22 6 1.6 4.8 0.00 0.05 0.05 88 1014.2
20260903222003 22 103 3.2 4.8 0.00 0.05 0.05 84 1014.2
20260903221003 22 29 3.2 4.8 0.00 0.05 0.05 84 1014.3
20260903220004 22 109 1.6 4.8 0.00 0.05 0.05 87 1014.5
20260903215004 22 68 1.6 4.8 0.00 0.05 0.05 86 1014.5
20260903214004 22 81 3.2 4.8 0.00 0.05 0.05 87 1014.4
20260903212004 22 48 3.2 4.8 0.00 0.05 0.05 88 1014.2
20260903211003 22 311 3.2 4.8 0.00 0.05 0.05 89 1014.5
20260903210003 21 62 1.6 4.8 0.00 0.05 0.05 90 1014.5
20260903205004 21 82 3.2 8.0 0.00 0.05 0.05 91 1014.4
20260903203004 21 58 1.6 8.0 0.00 0.05 0.05 91 1014.3
20260903201004 21 195 1.6 8.0 0.00 0.05 0.05 92 1014.8
20260903195003 21 262 1.6 8.0 0.00 0.05 0.05 89 1014.7
20260903194004 21 48 3.2 8.0 0.00 0.05 0.05 91 1014.9
20260903193004 22 300 0.0 3.2 0.00 0.05 0.05 89 1015.2
20260903192004 21 160 1.6 4.8 0.00 0.05 0.05 91 1014.9
20260903191004 21 34 1.6 4.8 0.00 0.05 0.05 92 1014.9
20260903190004 21 41 1.6 4.8 0.00 0.05 0.05 93 1015.0
20260903185003 21 328 1.6 9.7 0.00 0.05 0.05 91 1015.3
20260903184004 21 30 1.6 11.3 0.00 0.05 0.05 89 1015.0
20260903183004 22 337 3.2 16.1 0.00 0.05 0.05 89 1014.8
20260903182004 22 83 1.6 8.0 0.00 0.05 0.05 91 1014.5
20260903181004 21 91 3.2 11.3 0.00 0.05 0.05 94 1014.4
20260903180003 21 26 1.6 8.0 0.03 0.05 0.05 96 1014.6
20260903175003 20 81 3.2 4.8 0.05 0.05 0.05 97 1014.6
20260903174003 20 338 3.2 8.0 0.05 0.05 0.05 98 1014.6
20260903173004 20 104 1.6 3.2 0.05 0.05 0.05 99 1014.6
20260903172004 19 22 1.6 3.2 0.05 0.05 0.05 99 1014.4
20260903171003 19 302 1.6 3.2 0.03 0.03 0.03 99 1015.3
20260903170004 19 345 1.6 4.8 0.03 0.03 0.03 99 1015.2
20260903165004 18 294 1.6 3.2 0.00 0.00 0.00 99 1015.6
20260903164003 18 12 3.2 3.2 0.00 0.00 0.00 98 1015.6
20260903163003 19 314 1.6 3.2 0.00 0.00 0.00 98 1015.9
20260903162004 19 348 1.6 3.2 0.00 0.00 0.00 97 1015.4
20260903161003 19 336 3.2 3.2 0.00 0.00 0.00 97 1015.5
20260903160004 19 310 0.0 1.6 0.00 0.00 0.00 96 1015.3
20260903155004 19 340 0.0 1.6 0.00 0.00 0.00 96 1015.3
20260903153004 19 348 1.6 1.6 0.00 0.00 0.00 93 1015.6
20260903152003 20 26 1.6 3.2 0.00 0.00 0.00 92 1015.4
20260903151004 20 312 3.2 3.2 0.00 0.00 0.00 92 1015.1
20260903150004 20 14 0.0 3.2 0.00 0.00 0.00 92 1015.1
20260903144004 20 299 1.6 3.2 0.00 0.00 0.00 91 1014.7
20260903143004 20 348 1.6 4.8 0.00 0.00 0.00 91 1014.7
20260903142004 20 53 1.6 3.2 0.00 0.00 0.00 91 1014.5
20260903141004 19 35 1.6 3.2 0.00 0.00 0.00 91 1014.6
20260903140004 19 1 1.6 3.2 0.00 0.00 0.00 92 1014.8
20260903135003 19 349 0.0 3.2 0.00 0.00 0.00 92 1014.9
20260903134004 18 10 1.6 1.6 0.00 0.00 0.00 92 1015.0
20260903133004 18 24 0.0 3.2 0.00 0.00 0.00 92 1014.8
20260903132004 18 3 1.6 3.2 0.00 0.00 0.00 92 1014.9
20260903131004 18 314 1.6 3.2 0.00 0.00 0.00 93 1014.9
20260903130004 18 16 1.6 3.2 0.00 0.00 0.00 93 1014.8
20260903125004 18 6 1.6 3.2 0.00 0.00 0.00 93 1014.9
20260903124004 17 25 1.6 3.2 0.00 0.03 0.00 94 1014.9
20260903123004 17 320 1.6 3.2 0.00 0.03 0.00 94 1015.0
20260903122004 17 14 1.6 3.2 0.00 0.03 0.00 94 1014.8
20260903121003 17 3 1.6 3.2 0.00 0.03 0.00 95 1015.0
20260903114004 16 31 1.6 3.2 0.00 0.05 0.00 96 1015.0
20260903112004 16 17 0.0 3.2 0.00 0.05 0.00 96 1014.9
20260903111004 16 28 1.6 3.2 0.00 0.08 0.00 96 1014.8
20260903110004 16 0 1.6 3.2 0.00 0.15 0.00 96 1014.7
20260903105004 16 11 1.6 3.2 0.00 0.20 0.00 96 1014.7
20260903104005 16 15 1.6 3.2 0.00 0.23 0.00 97 1014.4
20260903102003 16 16 1.6 3.2 0.00 0.30 0.00 98 1014.6
20260903101003 16 29 1.6 3.2 0.00 0.38 0.00 99 1015.0
20260903100004 16 357 1.6 1.6 0.00 0.38 0.00 99 1014.8
20260903095004 16 16 1.6 1.6 0.00 0.38 0.00 99 1014.9
20260903094004 16 8 1.6 3.2 0.00 0.38 0.00 99 1014.5
20260903092004 16 27 1.6 1.6 0.00 0.38 0.00 99 1014.3
20260903091004 16 18 1.6 3.2 0.00 0.38 0.00 99 1014.4
20260903090004 16 14 1.6 1.6 0.00 0.38 0.00 99 1014.4
20260903085004 16 19 1.6 1.6 0.00 0.38 0.00 99 1014.2
20260903084004 16 5 1.6 3.2 0.00 0.38 0.00 99 1014.5
20260903083004 16 15 1.6 1.6 0.00 0.38 0.00 99 1014.5
20260903081004 16 36 1.6 3.2 0.00 0.38 0.00 99 1014.4
20260903080004 16 18 1.6 3.2 0.00 0.38 0.00 99 1014.4
20260903075004 16 346 0.0 1.6 0.00 0.38 0.00 99 1014.4
20260903074004 16 14 1.6 3.2 0.00 0.38 0.00 99 1014.4
20260903072004 16 345 0.0 1.6 0.00 0.38 0.00 99 1014.6
20260903071004 17 2 1.6 1.6 0.00 0.38 0.00 99 1014.5
20260903070004 17 22 0.0 3.2 0.00 0.38 0.00 99 1014.6
20260903065004 17 343 0.0 3.2 0.00 0.38 0.00 99 1014.7
20260903064004 17 41 0.0 3.2 0.00 0.38 0.00 99 1014.6
20260903063004 17 43 1.6 1.6 0.00 0.38 0.00 99 1014.7